Temperature
25 24 23 22 21 20 19 19 19 19 19 18 18 18 18 18 18 18 18 18 18 18 18 18 18 18 18 18 18 18 18 18 18 18 18 17 18 18 18 17 17 17 17
25 24 23 22 21 20 19 19 19 19 19 19 19 19 18 18 18 18 18 18 18 18 18 18 18 18 18 18 18 18 18 18 18 18 18 17 18 18 18 17 17 17 17
25 24 23 22 21 20 20 19 19 19 19 19 19 19 19 18 18 18 18 18 18 18 18 18 18 18 18 18 18 18 18 18 18 18 18 18 18 18 18 18 17 17 17
26 25 23 23 22 21 20 20 19 19 19 19 19 19 19 18 19 18 18 18 18 18 18 18 18 18 18 18 18 18 18 18 18 18 18 18 18 18 17 18 17 17 17
27 25 24 23 22 21 20 20 20 19 19 19 19 19 19 19 19 19 18 18 18 18 18 18 18 18 18 18 18 18 18 18 18 18 18 18 18 18 18 18 18 18 18
27 26 25 23 23 22 21 20 20 20 19 19 19 19 19 19 19 19 19 18 18 18 18 18 18 18 18 18 18 18 18 18 18 18 18 18 18 18 18 18 18 18 17
27 26 25 24 23 22 21 21 20 20 20 19 19 19 19 19 19 19 18 18 18 18 18 18 18 18 18 18 18 18 18 18 18 18 18 18 18 18 18 18 18 18 18
28 27 25 24 23 23 22 21 20 20 20 20 19 19 19 19 19 19 18 18 18 19 19 18 18 18 18 18 18 18 18 18 18 18 18 18 18 18 18 18 18 17 17
28 27 26 25 24 23 22 21 21 20 20 20 19 19 19 19 19 19 19 19 18 18 18 18 18 18 18 18 18 18 18 18 18 18 18 18 18 18 18 18 18 17 17
28 27 26 25 24 23 22 22 21 20 20 20 20 19 19 19 19 19 19 19 19 18 18 18 18 18 18 18 18 18 18 18 18 18 17 17 17 17 17 17 17 17 17
28 27 26 25 24 23 22 22 21 20 20 20 19 19 19 19 19 19 19 19 18 18 18 18 18 18 18 18 18 18 18 17 17 17 17 17 17 17 17 17 17 17 17
28 27 26 25 24 24 23 22 21 20 20 19 19 19 19 19 18 18 18 18 18 18 18 18 18 18 18 18 18 17 17 17 17 17 17 17 17 17 17 17 17 17 17
27 27 26 25 24 24 23 22 22 21 20 20 19 19 19 18 18 18 18 18 18 18 18 18 18 18 18 18 18 17 17 17 17 17 17 17 17 17 17 17 17 17 17
27 26 25 25 24 23 23 22 22 21 20 20 19 19 19 18 18 18 18 18 18 18 18 18 18 18 18 17 17 17 17 17 17 17 17 17 17 17 17 17 17 17 16
26 25 25 24 23 23 22 22 21 21 21 20 19 19 19 18 18 18 18 18 17 17 18 18 17 17 17 17 17 17 17 17 17 17 17 17 16 17 17 16 16 16 16
25 24 24 23 23 22 22 21 21 21 20 20 19 19 19 18 18 18 18 18 17 17 17 17 17 17 17 17 17 17 17 17 17 16 16 16 16 16 16 16 16 16 16
24 23 22 22 22 22 21 21 21 20 20 20 19 19 19 18 18 18 18 17 17 17 17 18 17 17 17 17 17 17 17 17 16 16 16 16 16 16 16 16 16 16 16
23 22 22 21 21 21 21 21 20 20 20 19 19 19 18 18 18 18 18 17 17 17 17 17 17 17 17 17 17 17 16 16 16 16 16 16 16 16 16 16 16 16 16
22 21 21 21 20 20 20 20 20 19 19 19 19 18 18 18 18 18 18 17 17 17 17 17 17 17 17 16 16 16 16 16 16 16 16 16 16 16 16 15 15 15 15
21 21 20 20 20 20 19 19 19 19 18 18 18 18 18 18 17 17 17 17 17 17 17 16 16 16 16 16 16 16 16 16 16 16 15 15 15 15 15 15 15 15 15
20 20 20 19 19 19 19 18 18 18 18 18 18 17 17 17 17 17 17 17 17 17 16 16 16 16 16 16 16 16 16 15 15 15 15 15 15 15 15 15 15 14 14
19 19 19 18 18 18 18 17 17 17 17 17 17 17 17 17 16 16 16 16 16 16 16 16 16 16 15 15 15 15 15 15 15 15 15 14 15 15 15 14 14 14 14
18 18 18 17 17 17 17 17 16 16 16 16 16 16 16 16 16 16 16 16 16 16 16 15 15 15 15 15 15 15 15 14 14 14 14 14 14 14 14 14 14 14 14
17 17 17 17 16 16 16 16 16 16 16 16 16 16 16 16 16 15 15 15 15 15 15 15 15 15 14 14 14 14 14 14 14 14 14 14 14 14 14 14 14 13 13
16 16 16 16 16 16 16 16 16 16 15 15 15 15 15 15 15 15 15 15 15 15 15 15 14 14 14 14 14 14 14 14 14 14 14 14 13 13 13 13 13 13 13
16 15 15 15 15 15 15 15 15 15 15 15 15 15 15 15 15 15 14 14 14 14 14 14 14 14 14 13 13 14 14 13 13 13 13 13 13 13 13 12 12 12 12
Wind_Speed
12 11 11 11 11 9 8 7 6 5 4 3 3 3 3 2 3 4 6 6 5 5 3 2 4 3 3 3 4 3 3 2 2 2 2 1 2 3 2 2 3 4 6
13 12 11 11 11 10 9 8 6 6 5 4 3 3 3 3 3 3 5 6 5 5 5 3 3 4 3 3 3 3 2 2 2 2 2 1 1 1 3 3 4 4 5
14 13 12 11 12 12 11 9 8 7 6 5 4 3 3 2 3 4 4 3 5 5 3 4 2 2 3 4 4 3 4 3 2 2 1 1 1 1 1 3 3 3 3
15 14 13 11 12 12 12 10 9 7 6 5 5 5 4 3 3 4 4 4 4 4 4 4 3 2 2 3 4 4 2 2 2 1 1 1 1 1 1 1 2 3 4
15 15 14 13 12 13 13 11 9 7 6 5 5 4 4 4 3 4 4 4 4 4 4 4 3 3 2 2 2 2 2 2 2 2 1 1 1 2 2 2 2 2 3
13 14 14 13 12 13 12 12 10 8 7 6 5 5 4 4 4 4 4 4 3 3 4 4 3 3 3 2 2 2 3 2 2 2 1 1 2 2 2 2 3 3 3
13 13 13 14 12 13 13 12 11 9 8 7 6 5 4 4 4 4 5 4 4 4 4 4 3 3 3 3 3 3 3 3 2 3 2 2 2 1 1 1 2 2 2
12 13 13 13 12 13 12 12 11 10 9 8 6 5 5 4 4 4 3 4 3 3 5 4 4 3 3 3 2 2 3 2 3 4 3 2 2 2 2 2 1 2 2
11 12 13 13 12 12 12 12 12 10 9 9 7 6 6 4 4 4 4 2 3 3 5 5 4 4 3 2 2 2 2 2 3 3 3 3 3 3 2 2 2 2 3
9 9 11 12 12 11 10 11 11 10 9 9 8 8 6 5 3 3 4 3 2 2 3 4 4 3 3 3 3 3 3 3 3 3 4 4 3 3 3 3 3 3 3
7 8 8 10 12 11 11 10 11 11 9 9 7 6 7 6 5 3 3 3 3 2 2 3 4 4 3 3 3 4 4 4 4 4 4 5 4 3 3 3 3 3 2
7 9 10 9 9 11 11 10 10 10 10 9 8 6 6 6 6 5 4 3 3 2 2 2 3 3 3 3 4 4 4 4 4 4 4 4 4 4 3 3 3 3 3
6 8 9 9 8 7 7 9 9 9 10 10 9 7 7 6 5 5 4 4 3 3 3 2 2 2 2 3 3 3 4 4 4 4 4 4 4 4 4 4 4 3 4
5 7 8 7 7 6 6 5 7 8 8 8 9 8 7 6 5 4 4 4 4 4 3 3 3 3 2 2 3 3 4 4 4 4 5 5 5 5 5 5 4 4 3
5 5 6 6 6 6 6 5 4 5 5 6 7 8 7 6 6 5 5 5 4 5 4 3 3 3 3 3 2 3 4 4 4 4 4 4 4 5 4 4 3 4 3
5 5 5 5 5 5 6 5 5 4 5 5 5 6 7 6 6 5 5 5 5 4 4 4 3 3 4 3 2 2 2 2 3 3 3 3 3 4 4 4 4 5 5
5 4 4 3 4 4 4 5 5 5 5 4 4 4 5 5 5 5 5 5 5 4 4 4 4 3 3 1 1 2 2 3 3 3 3 5 4 2 3 4 5 6 6
4 4 3 3 3 3 4 4 4 5 5 5 4 3 4 4 5 5 5 5 5 5 5 4 4 4 3 3 2 3 3 3 4 4 4 4 3 3 3 3 3 4 5
3 3 3 3 2 3 3 3 4 4 4 5 5 4 4 4 5 5 5 4 4 4 4 4 4 3 3 3 3 2 3 3 4 4 4 4 3 3 3 3 4 4 5
4 3 2 2 2 2 2 2 3 3 3 3 4 4 4 4 5 4 4 3 3 3 4 4 4 4 3 4 4 4 3 3 4 3 3 4 3 3 2 3 4 5 5
3 3 4 3 3 3 3 2 2 1 2 2 2 3 3 4 4 3 3 3 3 4 4 4 4 4 4 5 5 5 3 4 4 4 3 1 0 2 4 5 5 6 6
3 4 4 4 4 4 3 3 2 1 2 2 2 2 1 2 2 3 3 3 3 4 4 4 3 3 3 3 4 5 5 4 4 4 3 2 3 4 5 5 6 7 6
3 4 4 4 3 3 3 2 2 2 2 2 2 2 1 0 0 2 2 2 3 3 3 3 3 2 1 1 1 3 5 5 4 3 4 4 4 4 4 6 7 5 4
4 4 4 4 4 4 3 2 2 2 1 2 2 1 1 1 1 1 1 1 1 1 2 1 1 0 0 1 1 1 2 3 3 3 4 5 5 4 5 4 4 4 4
4 4 4 4 4 4 3 3 2 2 1 1 1 1 1 2 1 1 0 0 1 1 1 1 0 0 1 1 1 2 2 3 3 3 4 4 3 3 3 3 3 3 3
4 4 4 4 4 3 4 3 3 2 1 0 1 1 1 1 1 1 1 3 2 3 2 2 1 1 1 1 2 3 4 5 3 2 4 4 3 3 3 3 3 3 3
Wind_Direction
158 152 152 148 146 147 149 149 147 139 149 148 151 145 145 156 142 142 141 144 156 147 163 136 141 163 139 148 149 145 150 167 171 141 118 144 191 170 159 169 164 164 169
157 154 157 155 153 152 154 154 151 153 165 157 160 163 158 166 152 135 139 154 157 158 165 154 163 162 150 163 166 157 151 189 188 171 149 153 159 189 181 172 181 183 179
162 161 163 162 159 157 160 167 163 162 171 154 160 158 141 168 140 141 147 160 161 164 177 154 169 153 170 169 174 183 184 194 225 216 185 177 177 167 191 191 179 178 182
164 164 167 168 166 162 164 162 159 163 167 163 173 169 159 165 169 161 153 163 166 168 170 169 166 170 187 160 186 179 200 194 225 226 207 191 153 163 168 202 182 194 204
164 167 171 170 170 167 165 163 159 165 167 174 174 174 169 170 172 160 150 160 173 181 178 170 169 178 191 186 185 140 190 220 240 249 216 188 201 199 180 197 199 211 213
164 165 167 167 171 169 166 164 162 167 170 178 179 179 181 177 165 160 159 174 176 179 190 182 176 181 191 197 189 188 203 218 252 279 279 237 223 212 200 200 206 214 221
164 164 165 166 169 169 168 166 162 168 173 180 184 180 185 182 172 174 178 187 185 179 188 188 176 192 194 193 193 196 224 216 221 243 264 271 260 242 230 209 222 231 232
165 166 165 165 167 169 168 163 162 170 176 181 186 176 180 188 188 195 197 183 197 184 168 176 179 196 197 207 196 218 220 218 229 247 254 263 270 261 234 218 214 247 249
167 169 166 165 166 168 165 163 161 168 176 179 180 176 182 191 196 184 196 194 191 190 158 171 179 193 198 208 202 227 236 226 225 238 241 247 259 262 251 233 226 228 254
161 161 162 164 167 166 161 162 162 168 174 177 181 181 184 191 200 192 181 191 203 210 167 177 188 196 198 200 208 230 228 221 227 230 236 240 252 248 243 239 241 237 245
149 149 158 162 161 164 165 164 163 167 173 178 179 179 177 187 192 199 192 187 198 210 200 196 194 199 200 202 206 228 226 226 232 239 234 237 248 256 259 244 235 234 227
145 155 159 153 159 163 169 167 168 173 176 178 173 181 173 178 186 192 191 187 186 196 204 208 205 210 207 207 216 234 236 233 236 246 247 244 247 246 257 267 260 247 229
141 146 143 148 152 155 158 164 170 175 178 178 175 179 178 177 184 188 183 183 182 189 195 189 198 210 217 218 227 240 247 246 240 242 245 248 244 242 245 247 258 257 255
131 136 134 139 143 147 147 153 170 172 174 174 174 172 175 178 180 182 180 186 186 189 200 192 200 212 228 231 240 246 246 248 248 245 243 245 241 239 245 246 249 260 264
124 120 130 133 140 147 149 154 157 157 163 165 168 170 171 173 179 181 181 189 194 200 196 200 207 220 229 242 247 246 240 246 252 252 247 245 242 233 241 254 251 251 252
119 108 110 131 143 148 153 153 151 149 150 157 166 164 170 176 185 185 183 188 195 202 200 203 207 222 240 257 230 240 262 263 266 271 272 256 246 234 231 249 260 253 247
129 124 124 123 142 153 150 150 152 152 156 163 168 166 167 174 182 193 187 196 199 202 205 209 212 211 237 255 188 235 248 258 261 264 272 273 268 249 247 245 254 255 246
125 128 131 139 156 154 154 152 163 161 164 167 173 172 174 177 179 189 195 201 202 205 208 215 219 215 223 202 196 243 229 254 255 248 250 259 272 270 272 250 249 251 247
97 109 131 149 140 155 156 156 169 166 168 173 177 179 181 181 185 193 201 200 201 207 209 212 215 217 203 175 181 205 244 258 267 258 258 254 242 248 265 263 258 258 260
95 94 98 101 111 117 131 153 169 171 178 181 180 174 182 189 194 197 201 207 208 218 223 223 216 210 194 181 184 198 251 266 269 259 251 249 242 243 242 253 261 262 267
73 91 98 85 69 76 93 106 135 157 160 157 167 167 185 202 194 192 193 210 216 219 223 226 221 207 195 182 185 195 237 267 274 275 271 266 157 265 258 252 256 258 272
86 87 87 86 79 79 88 91 77 70 92 109 123 138 173 227 196 185 204 214 224 223 221 221 228 217 178 165 193 210 242 275 281 283 293 308 289 277 269 258 260 267 274
87 86 88 85 79 85 89 86 65 61 93 107 104 98 85 96 106 201 209 215 218 226 228 214 222 224 183 144 176 218 249 260 265 290 307 313 293 274 265 252 252 259 259
92 85 79 80 76 72 76 82 79 75 102 121 127 124 130 187 176 165 229 236 287 266 249 239 238 271 99 41 352 291 276 282 282 300 298 286 267 262 258 259 254 247 253
92 88 80 78 75 69 64 69 75 83 97 164 178 188 222 227 177 147 10 231 11 32 284 260 223 276 278 284 271 251 265 274 278 283 277 266 267 267 259 252 251 253 253
91 90 85 77 68 61 47 43 47 48 42 243 253 263 246 214 201 148 121 64 85 73 51 63 65 54 36 275 277 273 276 272 254 244 264 266 268 273 278 276 272 268 269
Height
1503 1506 1509 1511 1512 1514 1515 1518 1520 1521 1523 1525 1526 1527 1528 1530 1531 1532 1533 1534 1535 1536 1538 1539 1541 1542 1543 1545 1546 1547 1549 1550 1551 1552 1553 1554 1555 1555 1556 1557 1558 1559 1560
1501 1504 1507 1509 1511 1512 1514 1517 1519 1521 1523 1525 1526 1528 1529 1531 1532 1533 1534 1535 1536 1537 1539 1539 1541 1542 1543 1545 1546 1547 1549 1550 1551 1552 1553 1554 1556 1555 1556 1557 1558 1558 1559
1497 1501 1505 1508 1510 1511 1513 1516 1518 1520 1522 1524 1526 1528 1529 1531 1532 1534 1534 1535 1536 1537 1539 1540 1541 1542 1543 1544 1546 1547 1548 1549 1551 1552 1553 1553 1553 1555 1556 1556 1557 1557 1557
1494 1498 1502 1505 1508 1510 1512 1515 1517 1520 1522 1524 1525 1527 1529 1530 1532 1533 1534 1535 1537 1538 1539 1540 1541 1542 1543 1544 1545 1546 1548 1549 1549 1551 1552 1552 1552 1553 1554 1556 1555 1556 1556
1491 1495 1499 1503 1506 1509 1511 1514 1516 1519 1521 1523 1525 1527 1529 1530 1532 1533 1534 1535 1536 1537 1538 1539 1540 1541 1542 1543 1545 1545 1547 1548 1549 1550 1550 1551 1552 1552 1553 1553 1554 1555 1555
1488 1492 1497 1501 1504 1507 1510 1512 1515 1517 1519 1522 1524 1525 1527 1529 1531 1532 1534 1535 1536 1536 1537 1538 1539 1540 1541 1542 1543 1544 1545 1546 1547 1548 1549 1549 1550 1550 1551 1551 1552 1552 1552
1485 1490 1494 1498 1502 1505 1508 1511 1513 1515 1518 1520 1522 1524 1526 1528 1530 1531 1533 1534 1535 1535 1536 1537 1538 1539 1540 1541 1542 1543 1544 1544 1545 1545 1546 1547 1548 1548 1549 1549 1549 1550 1550
1483 1488 1492 1496 1500 1503 1506 1509 1511 1513 1516 1518 1520 1523 1525 1527 1528 1530 1532 1532 1533 1534 1535 1536 1536 1537 1538 1539 1540 1541 1542 1542 1543 1544 1544 1545 1546 1547 1547 1547 1548 1548 1548
1480 1485 1490 1494 1498 1501 1504 1507 1509 1511 1514 1516 1519 1521 1523 1525 1527 1529 1530 1531 1532 1533 1534 1534 1535 1535 1536 1538 1539 1539 1540 1541 1541 1542 1542 1543 1543 1544 1545 1545 1545 1546 1545
1479 1483 1488 1492 1496 1500 1503 1505 1508 1510 1512 1515 1517 1519 1521 1523 1525 1527 1528 1529 1531 1532 1532 1533 1533 1534 1535 1536 1536 1537 1538 1538 1539 1540 1540 1541 1541 1541 1542 1542 1543 1543 1543
1478 1481 1487 1491 1495 1498 1501 1504 1506 1508 1511 1513 1515 1517 1519 1521 1523 1524 1526 1527 1529 1530 1531 1531 1532 1533 1533 1534 1534 1535 1535 1536 1536 1537 1538 1538 1538 1539 1539 1539 1539 1539 1540
1478 1482 1485 1489 1493 1497 1500 1502 1504 1507 1509 1511 1513 1515 1517 1519 1520 1522 1523 1525 1526 1527 1528 1529 1530 1530 1531 1531 1532 1532 1533 1533 1534 1534 1535 1535 1535 1535 1536 1536 1536 1536 1536
1478 1481 1484 1488 1492 1495 1498 1500 1503 1505 1507 1509 1511 1513 1515 1516 1518 1519 1521 1522 1523 1524 1526 1527 1527 1528 1528 1529 1529 1530 1530 1531 1531 1531 1531 1532 1532 1532 1532 1532 1533 1533 1533
1478 1480 1484 1487 1491 1494 1497 1499 1502 1504 1506 1507 1509 1510 1512 1513 1515 1517 1519 1520 1521 1522 1523 1524 1524 1525 1526 1526 1526 1527 1527 1527 1528 1528 1528 1529 1529 1528 1528 1529 1529 1529 1529
1478 1481 1484 1487 1490 1493 1495 1498 1500 1502 1503 1505 1506 1508 1509 1511 1513 1514 1516 1517 1519 1520 1520 1521 1521 1522 1523 1523 1524 1524 1524 1524 1524 1525 1525 1525 1525 1525 1525 1526 1525 1526 1526
1479 1481 1484 1486 1489 1491 1494 1496 1498 1499 1501 1502 1504 1506 1507 1509 1511 1512 1513 1515 1516 1517 1517 1518 1518 1519 1520 1521 1521 1521 1522 1522 1522 1521 1522 1522 1522 1522 1522 1522 1522 1522 1522
1480 1482 1484 1486 1488 1490 1492 1493 1495 1497 1499 1501 1502 1504 1505 1506 1508 1509 1510 1511 1512 1513 1514 1515 1515 1516 1516 1517 1518 1518 1518 1518 1518 1518 1518 1519 1519 1518 1518 1518 1517 1517 1517
1480 1481 1483 1485 1487 1489 1490 1492 1494 1495 1497 1498 1500 1501 1503 1503 1505 1506 1507 1508 1509 1510 1510 1511 1512 1512 1513 1514 1514 1514 1515 1514 1515 1515 1515 1515 1514 1514 1514 1513 1513 1513 1513
1480 1481 1483 1484 1486 1487 1488 1490 1491 1493 1494 1496 1497 1498 1500 1501 1502 1503 1504 1505 1506 1506 1507 1508 1509 1509 1510 1510 1511 1511 1511 1510 1511 1511 1511 1511 1510 1510 1510 1509 1508 1508 1508
1479 1480 1482 1483 1484 1486 1487 1487 1489 1490 1492 1493 1494 1495 1497 1498 1499 1500 1501 1502 1503 1504 1505 1505 1506 1506 1506 1507 1507 1507 1507 1506 1506 1507 1507 1507 1506 1506 1505 1505 1504 1504 1503
1479 1480 1481 1482 1483 1484 1485 1486 1487 1488 1489 1490 1491 1493 1494 1495 1496 1497 1498 1499 1500 1501 1502 1502 1502 1502 1503 1503 1503 1503 1503 1503 1503 1503 1503 1503 1502 1501 1501 1501 1500 1500 1500
1479 1479 1480 1481 1482 1483 1484 1484 1485 1486 1487 1488 1488 1490 1491 1492 1494 1494 1495 1496 1497 1498 1498 1498 1498 1499 1498 1499 1499 1500 1500 1500 1500 1500 1499 1499 1498 1498 1497 1497 1496 1496 1495
1479 1479 1479 1480 1482 1482 1483 1483 1484 1485 1485 1486 1486 1487 1488 1489 1490 1491 1492 1493 1494 1495 1495 1495 1495 1496 1495 1495 1495 1496 1496 1496 1496 1496 1495 1495 1494 1494 1493 1493 1492 1492 1491
1478 1479 1479 1479 1481 1482 1483 1483 1483 1483 1484 1484 1485 1486 1486 1487 1488 1488 1489 1490 1491 1492 1492 1492 1493 1493 1493 1492 1492 1492 1492 1492 1492 1492 1491 1491 1491 1490 1489 1488 1488 1487 1487
1479 1479 1480 1479 1480 1481 1481 1482 1482 1482 1483 1483 1484 1484 1485 1485 1486 1485 1486 1486 1487 1488 1488 1489 1489 1490 1490 1490 1489 1489 1489 1488 1488 1488 1488 1487 1487 1486 1485 1485 1484 1483 1483
1479 1479 1480 1480 1480 1480 1480 1481 1481 1481 1481 1482 1482 1482 1483 1484 1484 1483 1484 1484 1485 1485 1486 1486 1486 1486 1487 1487 1487 1486 1486 1486 1486 1485 1484 1484 1484 1483 1482 1481 1481 1480 1479